Tracking 19574 objects as of 16-Feb-2019
HD Live streaming from Space Station
objects crossing your sky now

COSMOS 2447 (GLONASS)

Track COSMOS 2447 (GLONASS) now!
COSMOS 2447 (GLONASS) is classified as:


NORAD ID: 33466
Int'l Code: 2008-067A
Perigee: 19,115.8 km
Apogee: 19,157.4 km
Inclination: 64.0 °
Period: 675.7 minutes
Semi major axis: 25507 km
RCS: 3.1623 m2 (large)
Launch date: December 25, 2008
Source: Commonwealth of Independent States (former USSR) (CIS)
Launch site: TYURATAM MISSILE AND SPACE COMPLEX (TTMTR)

This is satellite part of Glonass family.
aabbcc
Your satellite tracking list
Your tracking list is empty




NASA's NSSDC Master Catalog

Two Line Element Set (TLE):
1 33466U 08067A   19046.80466008 +.00000003 +00000-0 +00000-0 0  9998
2 33466 063.9664 161.9315 0008150 259.1334 098.5936 02.13107555078885
Source of the keplerian elements: AFSPC